[[{"header":{"parameterUnit":"m.s-1","parameterCategory":1,"la1":30.2991,"la2":30.254,"lo1":-89.0895,"lo2":-89.0444,"dy":0.0017,"dx":0.0017,"nx":28,"ny":28,"refTime":"2024-06-12T21:00:00:Z","depth":0,"parameterNumber":2,"parameterNumberName":"U-component_of_WINDS"},"data":[0,0,0,0,0,0,0,0,0,0,0,0,0,0,0,0,0,0,0,0,0,0,0,0,0,0,0,0,0,0,0,0,0,0,0,0,0,0,0,0,0,0,0,0,0,0,0,0,0,0,0,0,0,0,0,0,0,0,1.6208,1.6209,0,1.6348,1.635,1.6352,1.6391,1.639,1.6389,1.6388,1.653,1.6534,1.6539,0,0,0,0,0,0,0,0,0,0,0,0,0,1.597,1.5974,1.6208,1.621,1.6211,1.6348,1.635,1.6352,1.6391,1.639,1.6389,1.6388,1.6528,1.6534,1.6539,0,0,0,0,0,0,0,0,0,0,0,0,0,1.6088,1.5976,1.6207,1.6247,1.6252,1.6348,1.635,1.6353,1.6391,1.639,1.6389,1.6388,1.6527,1.6533,1.654,1.6605,0,0,1.656,1.6563,0,0,0,0,0,0,0,0,1.6082,1.6097,1.624,1.6245,1.625,1.6351,1.6318,1.6437,1.6391,1.6338,1.6388,1.6387,1.6471,1.6482,1.6511,1.6612,1.6618,1.6561,1.6565,1.6568,1.657,0,0,0,0,0,0,0,1.6073,1.6091,1.6263,1.6242,1.6248,1.6257,1.6273,1.6341,1.6409,1.6343,1.6346,1.6362,1.6474,1.6505,1.6515,1.662,1.6561,1.6567,1.6571,1.6574,1.6781,1.6782,0,0,0,0,0,0,1.6059,1.6084,1.6259,1.6268,1.6161,1.6262,1.628,1.632,1.6409,1.6421,1.6363,1.6364,1.6494,1.6507,1.652,1.6602,1.6568,1.6574,1.6578,1.6779,1.6781,1.6782,0,0,0,0,0,0,1.6053,1.6074,1.6253,1.6177,1.62,1.6268,1.6312,1.6323,1.6354,1.6424,1.6436,1.6382,1.6493,1.651,1.6584,1.6607,1.6577,1.6584,1.6777,1.678,1.6782,1.6766,0,0,0,0,0,0,1.6047,1.6072,1.6098,1.6177,1.6204,1.6315,1.6314,1.6327,1.6366,1.6368,1.6445,1.6457,1.6494,1.6573,1.659,1.6616,1.6589,1.6776,1.6778,1.6781,1.6765,1.6767,1.677,0,0,0,0,0,1.6038,1.6087,1.6099,1.612,1.6238,1.6317,1.6332,1.6374,1.6368,1.6394,1.6439,1.6455,1.6602,1.6581,1.66,1.6628,1.6774,1.6778,1.6781,1.6764,1.6767,1.677,0,0,0,0,0,0,1.6008,1.6099,1.6112,1.6189,1.6245,1.6323,1.6357,1.6376,1.6434,1.6433,1.6482,1.6499,1.6569,1.6606,1.658,1.6696,1.6688,1.6696,1.6669,1.6672,1.6675,1.6664,1.6594,0,0,0,0,0,1.6011,1.6068,1.6143,1.6204,1.6231,1.6289,1.6325,1.6353,1.6412,1.6435,1.6486,1.6542,1.6601,1.6639,1.6697,1.6771,1.6788,1.6799,1.6802,1.6803,1.6809,1.685,1.6855,1.6793,1.6793,1.6793,0,0,1.6016,1.6073,1.6105,1.6199,1.6246,1.6302,1.6309,1.6369,1.6411,1.6444,1.6517,1.6556,1.6622,1.6695,1.673,1.6728,1.683,1.6808,1.6808,1.6813,1.6854,1.6859,1.6864,1.6795,1.6795,1.6795,0,0,1.6055,1.6104,1.616,1.6206,1.6277,1.6315,1.6329,1.6404,1.6432,1.6505,1.6531,1.6582,1.6683,1.6729,1.6765,1.6822,1.6838,1.6839,1.6852,1.6891,1.6896,1.69,1.6919,1.6926,1.6845,1.6845,1.6845,0,1.6053,1.614,1.6185,1.6244,1.6284,1.6318,1.6374,1.6417,1.6502,1.6529,1.6526,1.6653,1.67,1.6784,1.6798,1.6827,1.6843,1.683,1.6891,1.6897,1.6901,1.692,1.6927,1.6844,1.6844,1.6844,1.6844,0,1.6133,1.6194,1.623,1.6313,1.6357,1.6414,1.6467,1.6506,1.653,1.6568,1.6642,1.67,1.677,1.6792,1.6816,1.688,1.6876,1.6882,1.6875,1.6906,1.6925,1.6932,1.6844,1.6844,1.6844,1.6844,0,0,1.6156,1.6264,1.6276,1.6314,1.6395,1.6442,1.65,1.657,1.6602,1.666,1.6709,1.6794,1.68,1.6841,1.687,1.6904,1.6944,1.6906,1.6908,1.691,1.7017,1.7012,1.702,1.6956,1.6958,1.6959,1.7012,0,1.6205,1.6311,1.6353,1.6439,1.6495,1.6528,1.6579,1.6633,1.6671,1.6723,1.6764,1.6823,1.6827,1.6852,1.6887,1.6932,1.6966,1.6929,1.7001,1.7003,1.6983,1.703,1.7024,1.7071,1.7019,1.702,1.7021,0,1.6275,1.6334,1.6426,1.65,1.6525,1.6569,1.6636,1.6686,1.6748,1.6773,1.6819,1.6847,1.6908,1.6898,1.6983,1.6957,1.6989,1.7015,1.7018,1.7026,1.7013,1.7037,1.7087,1.7093,1.7033,1.7032,1.7032,0,1.6281,1.6384,1.6452,1.6484,1.6572,1.6602,1.664,1.6701,1.674,1.6799,1.6824,1.6889,1.6924,1.6972,1.7016,1.7005,1.7096,1.7091,1.7118,1.7117,1.7134,1.7133,1.7189,1.7157,1.7157,1.7157,1.7157,0,1.633,1.6384,1.6456,1.6498,1.656,1.6608,1.6667,1.6707,1.6761,1.6811,1.6843,1.6888,1.6944,1.6996,1.703,1.7095,1.7111,1.7132,1.714,1.7128,1.7125,1.7149,1.7147,1.7159,1.7158,1.7158,1.7158,0,1.6347,1.6398,1.6474,1.6551,1.6572,1.6614,1.6679,1.6721,1.676,1.6822,1.6839,1.6901,1.6964,1.7013,1.7095,1.7118,1.7186,1.7195,1.7165,1.7169,1.7193,1.7189,1.7266,1.7278,1.7238,1.7239,1.7239,0,1.6374,1.6417,1.6499,1.6535,1.6573,1.663,1.667,1.6719,1.676,1.6834,1.6866,1.6931,1.6986,1.7086,1.7137,1.72,1.721,1.7233,1.722,1.7207,1.721,1.7206,1.721,1.7234,1.7234,1.7234,1.7234,0,1.6417,1.644,1.6497,1.6563,1.661,1.6665,1.6719,1.6746,1.6805,1.6849,1.6914,1.6957,1.7041,1.7105,1.7173,1.7212,1.7232,1.7238,1.7248,1.7236,1.7216,1.7226,1.7168,1.7236,1.7236,1.7236,1.7236,1.7236,1.6439,1.6479,1.6543,1.6605,1.6652,1.6702,1.6745,1.679,1.6845,1.6918,1.6944,1.7011,1.7071,1.7165,1.7204,1.7257,1.7257,1.7271,1.7274,1.7277,1.7275,1.7208,1.7269,1.7269,1.7269,1.7269,1.7269,0,1.6482,1.6525,1.6583,1.6659,1.6708,1.6725,1.6786,1.6825,1.6884,1.694,1.6994,1.7068,1.7131,1.7188,1.7253,1.7284,1.7295,1.7299,1.7297,1.7305,1.7271,1.7256,1.7289,1.7289,1.7289,1.7289,1.7289,1.7289,1.6511,1.6578,1.6609,1.6699,1.6742,1.6808,1.6842,1.6888,1.6933,1.7015,1.7068,1.7105,1.716,1.723,1.7288,1.7303,1.7325,1.7326,1.7343,1.731,1.7308,1.7305,1.7291,1.7331,1.7331,1.7373,1.7373,1.7374]},{"header":{"parameterUnit":"m.s-1","parameterCategory":1,"la1":30.2991,"la2":30.254,"lo1":-89.0895,"lo2":-89.0444,"dy":0.0017,"dx":0.0017,"nx":28,"ny":28,"refTime":"2024-06-12T21:00:00:Z","depth":0,"parameterNumber":3,"parameterNumberName":"V-component_of_WINDS"},"data":[0,0,0,0,0,0,0,0,0,0,0,0,0,0,0,0,0,0,0,0,0,0,0,0,0,0,0,0,0,0,0,0,0,0,0,0,0,0,0,0,0,0,0,0,0,0,0,0,0,0,0,0,0,0,0,0,0,0,0.4219,0.4218,0,0.4147,0.4146,0.4145,0.4082,0.4081,0.408,0.4079,0.4004,0.4003,0.4002,0,0,0,0,0,0,0,0,0,0,0,0,0,0.4302,0.4301,0.4219,0.4218,0.4218,0.4147,0.4146,0.4145,0.4082,0.4081,0.408,0.4079,0.4005,0.4003,0.4002,0,0,0,0,0,0,0,0,0,0,0,0,0,0.4251,0.43,0.4219,0.4178,0.4173,0.4147,0.4146,0.4145,0.4082,0.4081,0.408,0.4079,0.4005,0.4003,0.4001,0.4011,0,0,0.3995,0.3994,0,0,0,0,0,0,0,0,0.4254,0.4248,0.4185,0.418,0.4175,0.4122,0.4147,0.41,0.4082,0.4117,0.4079,0.4078,0.4044,0.4039,0.4028,0.4007,0.4004,0.3995,0.3994,0.3993,0.3993,0,0,0,0,0,0,0,0.4258,0.4251,0.4191,0.4184,0.4178,0.4162,0.4153,0.4138,0.4087,0.4113,0.4109,0.4101,0.4042,0.403,0.4026,0.4003,0.3995,0.3993,0.3992,0.3991,0.3986,0.3987,0,0,0,0,0,0,0.4268,0.4255,0.4193,0.4188,0.4213,0.4161,0.4152,0.414,0.4087,0.4078,0.4102,0.4098,0.4034,0.4028,0.4023,0.403,0.3993,0.3991,0.399,0.3985,0.3986,0.3987,0,0,0,0,0,0,0.427,0.4263,0.4196,0.422,0.421,0.4161,0.4148,0.4139,0.4128,0.4079,0.4069,0.4099,0.4033,0.4026,0.4014,0.4027,0.399,0.3989,0.3984,0.3985,0.3987,0.4045,0,0,0,0,0,0,0.4273,0.4264,0.4268,0.4221,0.4209,0.4189,0.4149,0.4139,0.4124,0.4119,0.4074,0.4065,0.4031,0.4018,0.4012,0.4023,0.3987,0.3982,0.3984,0.3986,0.4042,0.4049,0.4054,0,0,0,0,0,0.4276,0.4287,0.4268,0.4261,0.4213,0.419,0.4183,0.4144,0.4126,0.4129,0.4097,0.4067,0.4026,0.4017,0.401,0.4021,0.3981,0.3984,0.3986,0.4039,0.4047,0.4054,0,0,0,0,0,0,0.4337,0.428,0.4259,0.4255,0.4228,0.4179,0.4182,0.4154,0.4131,0.4127,0.4079,0.407,0.4064,0.4041,0.4032,0.4027,0.4,0.4001,0.4042,0.4049,0.4056,0.4061,0.3985,0,0,0,0,0,0.435,0.4336,0.4287,0.4289,0.4276,0.4232,0.422,0.4192,0.4162,0.415,0.4118,0.409,0.407,0.4058,0.4038,0.4038,0.4027,0.4042,0.4048,0.4054,0.4055,0.4053,0.4059,0.3995,0.3995,0.3995,0,0,0.4376,0.4344,0.4338,0.43,0.4276,0.4263,0.4222,0.421,0.42,0.4148,0.4136,0.4111,0.4076,0.4071,0.4066,0.4051,0.4071,0.4057,0.4061,0.406,0.4056,0.4063,0.4068,0.3997,0.3996,0.3996,0,0,0.4418,0.4393,0.4391,0.4367,0.4331,0.4301,0.4301,0.4256,0.4238,0.4224,0.4185,0.4172,0.414,0.4116,0.41,0.4133,0.4104,0.4127,0.416,0.4158,0.4163,0.4168,0.4179,0.4184,0.4129,0.4129,0.4129,0,0.4456,0.4435,0.4393,0.4384,0.4368,0.4321,0.4318,0.4297,0.4256,0.4246,0.423,0.4188,0.4161,0.4149,0.4157,0.4146,0.4144,0.4133,0.4166,0.417,0.4173,0.4184,0.4188,0.4132,0.4132,0.4132,0.4131,0,0.4483,0.4469,0.4472,0.4434,0.4418,0.4413,0.4369,0.4358,0.4332,0.4304,0.429,0.4256,0.4228,0.4223,0.4197,0.4207,0.4199,0.4175,0.4147,0.4183,0.4192,0.4196,0.4137,0.4136,0.4135,0.4134,0,0,0.4562,0.45,0.4502,0.4484,0.444,0.4429,0.442,0.4393,0.4384,0.4357,0.4349,0.4322,0.43,0.4282,0.4252,0.4251,0.4279,0.4227,0.4225,0.4238,0.4288,0.4307,0.4312,0.4259,0.426,0.426,0.4291,0,0.4597,0.458,0.4542,0.4536,0.4522,0.4477,0.447,0.4442,0.4415,0.4399,0.4369,0.4351,0.4323,0.4311,0.4308,0.4276,0.4288,0.4273,0.4251,0.425,0.4261,0.4317,0.4336,0.4367,0.4294,0.4295,0.4295,0,0.4636,0.4612,0.4605,0.4562,0.4555,0.4549,0.452,0.4506,0.4473,0.4453,0.4433,0.44,0.4389,0.4362,0.4345,0.4336,0.4324,0.4307,0.4307,0.4304,0.4275,0.4315,0.4375,0.438,0.43,0.43,0.43,0,0.4694,0.466,0.4651,0.4637,0.4587,0.4583,0.4562,0.4528,0.4514,0.4489,0.4479,0.4453,0.4438,0.4419,0.438,0.4364,0.4367,0.4337,0.435,0.4351,0.4353,0.4353,0.4413,0.4345,0.4345,0.4345,0.4345,0,0.4737,0.4735,0.4677,0.4672,0.4668,0.4623,0.462,0.4595,0.4565,0.4553,0.4512,0.4502,0.4451,0.4436,0.4405,0.4395,0.4389,0.4373,0.4365,0.4376,0.4379,0.4368,0.4365,0.4346,0.4346,0.4346,0.4345,0,0.4802,0.4763,0.4751,0.4703,0.4692,0.4691,0.465,0.4643,0.4613,0.4599,0.4594,0.4547,0.4526,0.4485,0.4453,0.4432,0.4429,0.4415,0.4441,0.4436,0.4451,0.445,0.4506,0.4511,0.4441,0.4441,0.4442,0,0.4832,0.4829,0.4782,0.4771,0.4752,0.4735,0.4721,0.4677,0.4663,0.4625,0.4623,0.4598,0.4577,0.4545,0.4509,0.4483,0.4468,0.4489,0.4464,0.4476,0.4469,0.4469,0.4469,0.4495,0.4496,0.4497,0.4498,0,0.489,0.4871,0.4851,0.4825,0.4809,0.4786,0.4761,0.4755,0.4705,0.4691,0.4669,0.4653,0.462,0.4596,0.4565,0.4543,0.4512,0.4506,0.4508,0.452,0.4535,0.4527,0.4457,0.4505,0.4504,0.4504,0.4503,0.4503,0.4938,0.4933,0.4899,0.4879,0.4855,0.4833,0.4824,0.4793,0.4774,0.4744,0.4719,0.47,0.4666,0.4622,0.4601,0.4584,0.457,0.4572,0.4573,0.4574,0.4579,0.4538,0.4579,0.4578,0.4578,0.4578,0.4578,0,0.4993,0.4969,0.4951,0.4917,0.4901,0.4874,0.4845,0.4833,0.4816,0.4788,0.4767,0.4742,0.4719,0.468,0.4654,0.4648,0.4633,0.4642,0.4642,0.4638,0.4594,0.4595,0.4655,0.4655,0.4655,0.4655,0.4655,0.4655,0.5021,0.5011,0.4988,0.4966,0.4942,0.4922,0.4908,0.4887,0.4864,0.4838,0.4818,0.4793,0.476,0.4731,0.4708,0.4697,0.469,0.4704,0.4688,0.4648,0.4641,0.4634,0.4635,0.4702,0.4702,0.4733,0.4734,0.4734]}]]